Monster Beverage Current Ratio 2006-2019 | MNST

Current and historical current ratio for Monster Beverage (MNST) from 2006 to 2019. Current ratio can be defined as a liquidity ratio that measures a company's ability to pay short-term obligations. Monster Beverage current ratio for the three months ending March 31, 2019 was 3.02.
Monster Beverage Current Ratio Historical Data
Date Current Assets Current Liabilities Current Ratio
2019-03-31 $1.91B $0.63B 3.02
2018-12-31 $1.80B $0.60B 3.00
2018-09-30 $2.15B $0.66B 3.28
2018-06-30 $1.83B $0.61B 2.98
2018-03-31 $2.04B $0.53B 3.82
2017-12-31 $2.09B $0.56B 3.72
2017-09-30 $1.93B $0.60B 3.24
2017-06-30 $1.88B $0.56B 3.35
2017-03-31 $1.62B $0.47B 3.44
2016-12-31 $1.43B $0.47B 3.04
2016-09-30 $1.55B $0.47B 3.28
2016-06-30 $1.29B $0.50B 2.60
2016-03-31 $3.79B $0.54B 7.02
2015-12-31 $3.60B $0.41B 8.77
2015-09-30 $3.75B $0.51B 7.43
2015-06-30 $3.92B $0.49B 7.97
2015-03-31 $1.84B $0.55B 3.35
2014-12-31 $1.65B $0.36B 4.65
2014-09-30 $1.62B $0.37B 4.36
2014-06-30 $1.49B $0.41B 3.67
2014-03-31 $1.36B $0.38B 3.56
2013-12-31 $1.18B $0.32B 3.74
2013-09-30 $1.28B $0.44B 2.92
2013-06-30 $1.09B $0.35B 3.16
2013-03-31 $0.94B $0.33B 2.84
2012-12-31 $0.84B $0.29B 2.89
2012-09-30 $1.13B $0.32B 3.56
2012-06-30 $1.41B $0.30B 4.72
2012-03-31 $1.28B $0.29B 4.46
2011-12-31 $1.18B $0.27B 4.45
2011-09-30 $1.04B $0.17B 6.26
2011-06-30 $1.05B $0.16B 6.51
2011-03-31 $0.96B $0.16B 6.16
2010-12-31 $0.96B $0.19B 4.97
2010-09-30 $0.84B $0.14B 6.03
2010-06-30 $0.77B $0.16B 4.84
2010-03-31 $0.70B $0.14B 5.15
2009-12-31 $0.59B $0.08B 6.99
2009-09-30 $0.59B $0.11B 5.46
2009-06-30 $0.58B $0.10B 5.68
2009-03-31 $0.53B $0.11B 4.89
2008-12-31 $0.56B $0.19B 3.00
2008-09-30 $0.48B $0.09B 5.40
2008-06-30 $0.43B $0.11B 4.13
2008-03-31 $0.37B $0.09B 3.97
2007-12-31 $0.27B $0.08B 3.26
2007-09-30 $0.46B $0.10B 4.72
2007-06-30 $0.41B $0.11B 3.58
2007-03-31 $0.33B $0.09B 3.75
2006-12-31 $0.28B $0.06B 4.38
2006-09-30 $0.28B $0.10B 2.90
2006-06-30 $0.24B $0.06B 3.78
2006-03-31 $0.18B $0.05B 3.73
2005-12-31 $0.14B $0.03B 4.26
2005-09-30 $0.12B $0.04B 3.52
2005-06-30 $0.10B $0.03B 3.10
2005-03-31 $0.08B $0.03B 2.89
Sector Industry Market Cap Revenue
Consumer Staples Beverages - Soft Drinks $34.474B $3.807B
Based in Corona, California, Monster Beverage Corporation is a holding company and conducts no operating business except through its consolidated subsidiaries. The Company's subsidiaries market and distribute energy drinks, including Monster Energy(R) energy drinks, Monster Energy Extra Strength Nitrous Technology(R) energy drinks, Java Monster(R) non-carbonated coffee + energy drinks, M3(R) Monster Energy(R) Super Concentrate energy drinks, Monster Rehab(R) non-carbonated energy drinks with electrolytes, Muscle Monster(R) Energy Shakes, Ubermonster(R) energy drinks, NOS(R) energy drinks, Full Throttle(R) energy drinks, Burn(R) energy drinks, Samurai(R) energy drinks, Relentless(R) energy drinks, Mother(R) energy drinks, Power Play(R) energy drinks, BU(R) energy drinks, Nalu(R) energy drinks, BPM(R) energy drinks, Gladiator(R) energy drinks, and Ultra(R) energy drinks.
Stock Name Country Market Cap PE Ratio
Coca-Cola (KO) United States $211.632B 23.62
Pepsico (PEP) United States $181.536B 22.88
Keurig Dr Pepper (KDP) United States $41.089B 26.08
Fomento Economico MexicanoB De C.V (FMX) Mexico $34.981B 27.01
Coca-Cola European Partners (CCEP) United Kingdom $27.198B 20.72
Coca Cola FemsaB De C.V (KOF) Mexico $13.298B 23.02
Embotelladora Andina (AKO.B) Chile $3.160B 19.83
Coca-Cola Bottling Consolidated (COKE) United States $2.868B 49.33
Embotelladora Andina (AKO.A) Chile $2.715B 17.04
National Beverage (FIZZ) United States $2.376B 15.77
Cott (COT) Canada $1.807B 332.25
Primo Water (PRMW) United States $0.435B 37.10
New Age Beverage (NBEV) United States $0.410B 0.00
Youngevity (YGYI) United States $0.168B 0.00
Reeds (REED) United States $0.124B 0.00
Alkaline Water (WTER) United States $0.072B 0.00
SkyPeople Fruit Juice (FTFT) China $0.044B 0.00
DAVIDsTEA (DTEA) Canada $0.030B 0.00
Coffee Holding (JVA) United States $0.025B 26.00